Simultaneous Nadir Overpasses (SNOs) Predictions

Prediction of SNOs between GOES-15 and METOP-B Satellite Orbit:

Table of predicted SNOs for the next 14.0 days since TLE Epoch: 4/13/2017
Index Date Time (GOES-15) GOES-15 Lat,Lon METOP-B Lat,Lon Distance(km) Time Diff (sec)
1 04/14/2017 06:24:37 0.04,-135.45 0.59,-133.05 273.43 80
2 04/15/2017 18:43:28 -0.05,-135.47 0.41,-137.61 243.96 80
3 04/16/2017 18:20:09 -0.04,-135.47 -0.70,-132.62 325.55 80
4 04/18/2017 06:39:09 0.05,-135.46 -0.32,-137.22 199.68 80
5 04/19/2017 06:21:09 0.05,-135.47 0.80,-132.23 369.74 80
6 04/20/2017 18:40:01 -0.06,-135.48 0.20,-136.79 148.55 80
7 04/21/2017 18:16:40 -0.06,-135.48 -0.86,-131.79 420.30 80
8 04/23/2017 06:35:40 0.06,-135.46 -0.16,-136.38 106.18 80
9 04/24/2017 06:17:41 0.06,-135.45 0.96,-131.39 462.59 80
10 04/25/2017 18:36:32 -0.07,-135.46 0.04,-135.96 56.55 80




NCC Satellite Simultaneous Nadir Overpasses (SNOs) Prediction Service
